Location: Unspecified
(0.0000°N, 0.0000°E)
Time: 06:54:22
(UTC+00:00)

Vanguard 2 Rocket - Pass Details

Date: 08 October 2023
Orbit: 552 x 3312 km, 32.9° (Epoch: 06 December)

Event Time Altitude Azimuth Distance (km) Brightness Sun altitude
Rises 12:32:46 0° 319° (NW) 6,643 11.3 77.3°
Reaches altitude 10° 12:38:01 10° 330° (NNW) 5,917 11.2 76.1°
Maximum altitude 12:54:05 30° 25° (NNE) 4,737 10.8 72.4°
Drops below altitude 10° 13:09:34 10° 80° (E) 5,779 10.9 68.7°
Sets 13:14:29 0° 90° (E) 6,483 11.0 67.5°
